Vorticity
7 5 5 7 10 10 5 6 7 2 5 5 3 3 1 5 3 -0 2 5 -0 4 4 5 7 5 7 8 7 7 8 6 4 4 4 4 4 5 5 5 5 5 5 4 3 4 6 6 4
8 5 5 3 8 9 4 4 7 10 8 5 4 4 3 5 3 4 -0 4 2 0 3 8 7 6 7 8 9 7 9 6 4 3 3 4 4 3 4 4 5 5 5 5 4 3 4 5 7
6 6 3 2 7 8 5 3 11 10 10 4 7 2 5 3 2 5 2 5 2 6 5 5 8 7 7 6 8 8 7 7 5 4 3 4 3 2 3 3 5 6 6 5 5 4 3 2 4
4 4 2 3 10 5 7 10 6 5 8 1 7 3 7 -0 8 3 3 10 5 7 5 8 7 8 6 5 6 7 8 6 7 7 8 8 5 5 2 3 4 4 6 3 5 5 4 4 2
2 1 -3 1 4 13 7 10 14 6 7 8 2 4 6 3 6 4 8 7 2 4 6 6 9 8 6 7 6 8 7 6 7 6 6 5 6 4 5 4 5 7 5 4 4 3 5 5 5
2 2 3 2 5 4 12 4 14 5 5 6 9 6 12 7 -3 4 8 8 2 8 8 6 8 6 8 8 8 9 7 5 5 4 4 5 4 4 5 7 6 4 5 6 4 5 6 4 4
3 2 3 2 4 4 4 8 6 8 9 9 8 7 4 4 1 8 2 11 3 6 4 8 7 8 7 8 9 8 7 5 5 7 5 7 8 7 7 7 8 8 5 6 6 5 4 3 3
5 3 3 3 2 3 4 6 5 4 5 3 7 6 6 1 4 9 2 4 5 8 6 7 6 7 9 10 9 6 7 8 6 7 7 7 7 9 8 8 7 5 6 4 5 6 5 3 4
6 -1 3 3 2 3 4 3 8 3 5 1 3 6 8 8 1 7 4 8 8 2 5 6 9 8 8 10 8 6 7 6 5 6 7 6 4 0 10 8 3 5 7 7 9 9 8 6 7
9 -4 6 5 4 3 3 5 3 5 3 5 6 3 5 8 3 2 -0 6 6 8 8 7 7 8 9 8 8 6 6 7 5 6 6 7 6 4 -0 3 10 10 11 13 10 10 8 5 5
13 5 7 2 5 4 2 2 4 5 6 2 2 -0 5 4 1 7 1 4 8 8 8 6 5 8 12 9 7 8 7 7 8 8 9 6 5 4 5 3 2 1 1 2 2 4 3 4 5
15 10 10 4 5 3 3 3 3 5 7 6 4 2 9 6 1 6 7 5 9 7 6 5 4 8 9 10 6 7 9 8 7 7 8 8 7 7 6 2 1 7 8 4 2 5 5 7 8
22 14 11 7 3 3 4 3 1 3 5 7 3 2 2 6 7 10 7 9 5 7 8 7 5 5 7 8 8 9 9 7 5 5 5 4 4 3 6 6 9 8 6 10 4 10 10 8 9
18 20 28 11 7 4 2 4 3 3 2 3 9 1 3 4 4 9 4 5 7 5 5 4 4 5 7 4 7 11 9 6 4 4 5 2 5 8 6 7 10 8 8 3 6 6 9 10 10
12 11 20 27 10 9 9 6 2 1 11 5 2 9 4 2 6 8 4 4 3 5 5 5 5 4 7 5 6 12 7 5 4 5 6 4 8 8 8 7 7 1 9 5 6 8 9 10 9
27 13 16 15 23 26 18 7 0 11 5 5 7 5 6 3 4 11 6 5 3 4 4 4 5 5 6 7 7 11 9 5 5 6 6 6 7 5 10 6 5 4 9 8 5 7 7 7 6
49 23 24 14 14 17 29 2 8 -4 27 12 4 0 6 9 4 5 9 4 6 5 4 4 4 5 4 6 5 8 12 6 4 4 7 8 6 4 -1 6 4 5 5 4 6 6 5 5 5
42 36 28 22 18 11 23 30 -7 34 -9 2 4 10 1 0 10 5 10 7 6 5 4 5 3 5 4 6 5 6 13 8 7 5 6 6 10 5 7 5 3 5 4 3 6 5 4 4 4
27 12 33 17 22 16 15 16 37 17 34 12 14 -1 5 5 5 12 6 9 8 7 5 4 5 6 6 5 5 7 9 7 7 8 6 6 7 3 5 3 2 3 6 4 4 3 3 3 4
15 17 24 24 25 18 18 18 20 24 -30 1 7 31 16 3 3 11 8 9 6 7 5 6 6 5 5 4 7 4 5 7 4 9 6 7 3 4 4 3 5 4 5 4 4 3 4 3 2
23 21 20 27 25 21 20 28 14 15 21 2 27 19 22 6 6 9 14 8 6 3 8 4 6 5 5 3 4 3 2 6 8 6 11 8 4 6 7 6 4 4 4 5 4 4 3 3 4
29 30 25 30 -14 7 29 40 45 20 34 8 19 9 17 31 28 6 12 8 5 4 4 5 3 5 6 5 5 3 6 5 4 7 8 10 6 3 2 7 6 5 2 3 4 4 5 4 4
29 25 36 9 15 22 -31 1 34 27 1 43 -35 10 -8 14 19 21 6 14 6 5 3 6 4 5 5 4 6 5 5 5 3 8 5 9 7 5 6 4 5 4 4 4 2 4 4 4 5
20 36 11 3 2 21 3 31 22 18 13 16 40 4 -27 -21 -23 20 18 12 15 4 9 -4 11 3 4 6 7 5 4 4 4 7 4 7 7 5 4 6 6 4 4 5 5 3 4 5 4
18 56 -0 -13 15 12 11 9 34 21 17 42 -3 16 38 28 34 39 2 3 21 10 -3 16 8 7 4 5 6 4 4 3 6 4 4 10 9 7 5 5 7 6 6 5 5 6 5 4 5
29 56 -10 -12 7 18 5 7 39 4 -11 3 48 7 -3 -2 -36 -25 3 27 3 19 6 3 7 6 4 4 4 4 3 5 4 7 3 8 5 6 3 8 9 7 5 3 3 2 3 5 4
31 1 41 14 -17 -17 13 -12 10 30 22 -1 13 29 32 24 20 25 23 9 12 14 15 -0 11 4 6 5 2 3 6 6 3 4 3 5 4 4 5 9 3 6 6 7 8 9 8 7 7
-2 28 2 49 14 -8 -2 -18 26 6 23 33 -19 3 10 14 -22 -5 18 1 20 27 18 9 3 10 7 8 6 4 4 3 2 2 6 4 7 9 0 4 1 5 4 4 5 7 9 8 8
8 6 43 -5 13 55 10 34 -21 36 14 17 19 26 25 10 39 7 10 9 -3 -12 26 14 4 5 9 7 9 6 5 3 8 6 5 -1 8 6 6 7 5 2 3 6 8 8 6 6 5
21 11 -4 36 2 -23 -8 14 15 5 21 3 45 30 19 -34 -32 44 10 11 24 11 18 22 9 -0 12 9 8 10 5 5 2 1 5 4 -2 7 8 5 7 2 4 2 1 7 1 6 5
Height
5773 5772 5771 5775 5779 5773 5776 5784 5801 5801 5806 5812 5813 5811 5812 5820 5823 5828 5832 5837 5840 5842 5842 5846 5848 5849 5852 5854 5856 5858 5861 5864 5866 5869 5872 5874 5876 5878 5880 5883 5885 5886 5888 5891 5891 5892 5893 5894 5896
5766 5765 5763 5764 5765 5763 5770 5784 5792 5797 5805 5805 5804 5804 5807 5814 5819 5822 5827 5833 5836 5838 5839 5842 5845 5846 5848 5851 5854 5856 5859 5862 5864 5867 5870 5872 5875 5877 5879 5881 5884 5885 5887 5889 5890 5891 5892 5893 5896
5755 5755 5756 5753 5753 5755 5764 5777 5786 5792 5795 5795 5795 5795 5807 5812 5813 5815 5823 5830 5833 5833 5836 5838 5842 5843 5845 5847 5850 5853 5856 5859 5862 5864 5868 5871 5873 5875 5877 5880 5883 5885 5886 5887 5889 5890 5892 5893 5895
5745 5747 5747 5745 5746 5754 5761 5773 5780 5783 5786 5786 5788 5791 5805 5806 5807 5814 5821 5825 5829 5827 5831 5833 5837 5839 5841 5844 5846 5849 5852 5856 5859 5862 5865 5868 5871 5873 5875 5878 5881 5883 5885 5886 5887 5889 5891 5892 5894
5730 5733 5734 5735 5741 5749 5755 5765 5772 5776 5778 5778 5780 5786 5799 5802 5804 5808 5812 5818 5820 5822 5825 5829 5832 5835 5838 5841 5843 5846 5849 5852 5856 5859 5862 5866 5869 5871 5873 5877 5879 5881 5882 5883 5885 5887 5889 5891 5892
5716 5721 5723 5727 5733 5739 5747 5757 5761 5770 5772 5769 5774 5782 5790 5797 5800 5802 5805 5810 5816 5817 5821 5825 5828 5832 5835 5837 5840 5843 5846 5849 5853 5856 5860 5863 5866 5868 5870 5874 5876 5877 5879 5881 5884 5886 5888 5890 5891
5700 5703 5711 5714 5721 5727 5737 5748 5751 5758 5765 5762 5772 5776 5784 5786 5794 5796 5797 5804 5810 5811 5816 5820 5824 5827 5830 5834 5837 5840 5844 5846 5850 5853 5857 5861 5864 5865 5867 5870 5873 5875 5877 5880 5882 5885 5887 5889 5889
5678 5681 5689 5700 5707 5715 5723 5736 5743 5748 5754 5761 5761 5765 5772 5782 5785 5792 5789 5796 5804 5806 5810 5816 5820 5823 5827 5830 5834 5837 5840 5843 5846 5851 5853 5856 5860 5862 5865 5867 5869 5872 5875 5878 5881 5883 5885 5887 5888
5655 5656 5673 5689 5693 5702 5711 5718 5726 5734 5738 5745 5748 5753 5764 5774 5774 5780 5781 5789 5798 5801 5806 5812 5816 5820 5822 5826 5829 5833 5836 5840 5844 5846 5851 5855 5859 5860 5861 5863 5867 5870 5873 5875 5878 5880 5882 5884 5885
5624 5635 5659 5673 5677 5681 5693 5698 5708 5715 5724 5732 5732 5743 5752 5758 5767 5771 5777 5786 5794 5797 5803 5807 5811 5815 5817 5821 5825 5829 5832 5837 5840 5844 5849 5853 5855 5856 5858 5861 5864 5867 5870 5872 5875 5876 5879 5881 5882
5599 5612 5635 5645 5651 5660 5671 5680 5692 5698 5710 5720 5725 5731 5740 5747 5760 5766 5773 5781 5788 5791 5796 5800 5805 5809 5814 5817 5821 5824 5830 5833 5837 5842 5846 5847 5849 5852 5856 5860 5863 5865 5867 5869 5872 5874 5876 5878 5879
5569 5590 5609 5616 5630 5642 5655 5668 5676 5686 5700 5708 5714 5720 5729 5737 5750 5760 5765 5771 5778 5782 5790 5793 5798 5804 5808 5812 5816 5820 5826 5830 5833 5837 5840 5842 5846 5849 5854 5857 5860 5863 5864 5867 5870 5872 5873 5875 5875
5539 5562 5580 5590 5605 5620 5636 5649 5661 5671 5687 5698 5705 5710 5717 5726 5739 5750 5755 5760 5766 5772 5781 5786 5791 5797 5802 5807 5811 5815 5820 5825 5827 5831 5835 5839 5842 5846 5850 5852 5856 5858 5861 5864 5866 5868 5869 5871 5871
5529 5542 5554 5566 5583 5596 5612 5629 5648 5660 5667 5681 5693 5700 5707 5714 5729 5738 5745 5751 5758 5764 5773 5779 5786 5791 5797 5802 5806 5811 5816 5819 5821 5825 5830 5835 5838 5842 5845 5848 5853 5854 5857 5861 5863 5865 5866 5867 5868
5510 5519 5528 5540 5565 5575 5590 5608 5629 5646 5651 5665 5681 5691 5695 5702 5719 5731 5738 5744 5752 5759 5766 5772 5780 5785 5790 5797 5801 5806 5809 5812 5816 5821 5826 5831 5834 5838 5841 5844 5849 5849 5854 5858 5859 5861 5863 5865 5866
5497 5509 5523 5539 5546 5555 5573 5595 5609 5631 5638 5650 5667 5683 5687 5691 5710 5721 5729 5734 5743 5750 5757 5764 5772 5778 5784 5792 5796 5800 5802 5806 5811 5817 5822 5826 5829 5834 5837 5842 5844 5847 5851 5855 5856 5858 5860 5862 5863
5487 5503 5513 5528 5534 5542 5558 5574 5597 5615 5624 5633 5650 5667 5678 5683 5698 5711 5719 5724 5734 5742 5750 5755 5765 5773 5778 5785 5790 5793 5797 5801 5806 5813 5817 5820 5825 5830 5833 5838 5839 5844 5848 5851 5853 5856 5858 5859 5860
5482 5491 5501 5511 5519 5531 5546 5560 5584 5597 5614 5623 5636 5654 5667 5674 5688 5701 5709 5717 5725 5734 5742 5748 5757 5764 5770 5776 5782 5787 5792 5795 5801 5808 5813 5814 5820 5825 5829 5831 5836 5841 5843 5847 5849 5852 5855 5856 5858
5480 5482 5490 5500 5510 5522 5536 5550 5572 5591 5602 5616 5628 5640 5655 5661 5673 5686 5697 5707 5716 5723 5731 5740 5748 5755 5762 5769 5775 5782 5787 5791 5797 5802 5808 5810 5814 5819 5823 5827 5832 5836 5838 5841 5844 5848 5851 5853 5855
5478 5482 5488 5495 5507 5514 5524 5542 5564 5581 5593 5608 5619 5633 5641 5647 5657 5671 5684 5696 5702 5713 5721 5730 5739 5747 5755 5763 5769 5776 5779 5784 5790 5794 5801 5805 5809 5814 5817 5822 5827 5829 5833 5837 5840 5843 5846 5849 5851
5476 5481 5485 5494 5507 5516 5522 5537 5554 5571 5584 5602 5604 5610 5625 5634 5644 5655 5668 5682 5692 5703 5711 5720 5730 5739 5748 5755 5759 5764 5770 5776 5781 5786 5792 5798 5803 5808 5812 5816 5820 5823 5828 5830 5833 5837 5840 5843 5845
5477 5479 5486 5496 5510 5518 5522 5533 5549 5561 5569 5583 5596 5606 5618 5625 5634 5648 5659 5664 5679 5691 5701 5711 5721 5729 5738 5745 5751 5758 5764 5772 5778 5782 5787 5791 5796 5801 5805 5809 5813 5817 5822 5824 5828 5831 5834 5838 5841
5481 5483 5489 5500 5509 5515 5523 5534 5538 5549 5557 5571 5588 5595 5607 5618 5625 5636 5650 5660 5670 5680 5689 5701 5709 5718 5727 5735 5744 5752 5757 5764 5768 5772 5778 5783 5788 5793 5797 5802 5807 5811 5815 5817 5821 5825 5828 5831 5834
5487 5489 5495 5504 5511 5518 5523 5530 5537 5545 5553 5562 5575 5590 5600 5609 5618 5627 5640 5650 5661 5670 5678 5689 5697 5705 5715 5725 5734 5742 5747 5753 5759 5764 5769 5776 5781 5785 5789 5795 5800 5804 5807 5810 5814 5817 5820 5824 5826
5496 5495 5502 5508 5514 5517 5526 5532 5537 5544 5553 5562 5570 5583 5594 5606 5610 5617 5630 5639 5650 5664 5669 5681 5688 5693 5703 5714 5722 5730 5736 5745 5750 5755 5761 5768 5773 5777 5782 5787 5792 5796 5799 5802 5806 5809 5812 5816 5818
5506 5505 5509 5513 5518 5522 5526 5532 5537 5545 5549 5556 5565 5575 5585 5595 5604 5611 5620 5631 5642 5652 5662 5669 5675 5685 5694 5703 5712 5720 5727 5734 5739 5745 5750 5756 5763 5769 5773 5778 5783 5787 5790 5793 5796 5800 5804 5807 5809
5516 5515 5516 5518 5520 5524 5528 5533 5537 5543 5548 5554 5559 5565 5575 5587 5598 5605 5611 5622 5633 5642 5651 5659 5666 5674 5683 5692 5702 5709 5715 5721 5728 5735 5741 5747 5752 5758 5763 5768 5773 5776 5779 5783 5787 5791 5795 5798 5800
5524 5523 5523 5523 5524 5527 5529 5533 5536 5541 5546 5550 5555 5560 5570 5580 5587 5595 5602 5612 5622 5631 5638 5647 5655 5663 5673 5680 5689 5698 5705 5710 5717 5723 5728 5735 5741 5745 5752 5758 5762 5766 5769 5773 5777 5781 5785 5788 5790
5531 5529 5527 5529 5531 5532 5536 5538 5539 5540 5543 5547 5549 5555 5561 5569 5578 5586 5592 5599 5611 5620 5626 5632 5642 5650 5660 5668 5675 5683 5691 5698 5704 5712 5716 5721 5728 5735 5738 5745 5751 5755 5759 5762 5766 5771 5775 5778 5781
5534 5534 5533 5533 5535 5533 5535 5536 5536 5538 5541 5543 5546 5549 5556 5561 5567 5576 5582 5589 5596 5607 5616 5622 5630 5638 5645 5654 5661 5669 5677 5685 5691 5698 5704 5709 5715 5722 5728 5732 5737 5742 5747 5752 5756 5760 5764 5767 5771